Regional Weather Roundup
Issued by NWS

Home | Current Version | Previous Version | Text Only | Print | Product List | Glossary Off
Versions: 1 2 3 4 5 6 7 8 9 10 11 12 13 14 15 16 17 18 19 20 21 22 23 24 25 26 27 28 29 30 31 32 33 34 35 36 37 38 39 40 41 42 43 44 45 46 47 48 49 50

000
ASUS45 KBOU 252007
RWRCO

WEATHER ROUNDUP FOR COLORADO
NATIONAL WEATHER SERVICE DENVER/BOULDER CO
200 PM MDT FRI JUL 25 2014

NOTE: "FAIR" INDICATES FEW OR NO CLOUDS BELOW 12000 FEET WITH NO
SIGNIFICANT WEATHER AND/OR OBSTRUCTIONS TO VISIBILITY.

COZ001>005-013-030-031-252100-
...NORTHWEST COLORADO...

CITY           SKY/WX    TMP DP  RH WIND       PRES   REMARKS
CRAIG          PTSUNNY   77  47  34 VRB6      30.16F THUNDER
HAYDEN         MOSUNNY   88  37  16 SW10G17   30.18F
MEEKER         PTSUNNY   84  46  26 MISG      30.18F
MOUNT WERNER   NOT AVBL
STEAMBOAT SPGS MOSUNNY   83  47  28 SW8       30.21F
WALDEN         CLOUDY    81  36  19 SW13G20   30.31F
$$

COZ006>008-011-252100-
...WEST CENTRAL VALLEYS...

CITY           SKY/WX    TMP DP  RH WIND       PRES   REMARKS
GRAND JUNCTION TSTM      73  60  63 S10       30.13R
MONTROSE       CLOUDY    83  57  41 W8        30.21F
EAGLE          MOSUNNY   84  48  28 SW21G26   30.23F
RIFLE          MOSUNNY   89  45  21 W21       30.13F
DELTA          CLOUDY    89  48  23 S7        30.16F
NUCLA          CLOUDY    81  46  30 S6        30.28S
$$

COZ017>023-064>068-252100-
...SOUTHWEST COLORADO...

CITY           SKY/WX    TMP DP  RH WIND       PRES   REMARKS
DURANGO        MOSUNNY   87  43  21 W14G21    30.26F
CORTEZ         SUNNY     90  45  21 NW7       30.21F
PAGOSA SPRINGS MOSUNNY   83  38  20 SW13G20   30.34F
TELLURIDE      NOT AVBL
WOLF CREEK PAS NOT AVBL
$$

COZ009-010-012-014-032>034-037-058>063-252100-
...CENTRAL COLORADO...

CITY           SKY/WX    TMP DP  RH WIND       PRES   REMARKS
ASPEN          PTSUNNY   81  46  29 CALM      30.32F
BUENA VISTA    PTSUNNY   71  47  42 N23G32    30.33S
COPPER MTN     CLOUDY    61  41  48 W20G25    30.69S
BERTHOUD PASS  TSTM      52  36  54 W9        30.74S
COTTONWOOD PAS PTSUNNY   75  37  25 W5        30.50R
GUNNISON       PTSUNNY   66  54  63 E10       30.37F
KREMMLING      PTSUNNY   82  37  20 SW10G21   30.27F
LEADVILLE      LGT RAIN  60  45  57 SW5       30.51S
MONARCH PASS   PTSUNNY   63  37  39 SW18G31   30.78F
SALIDA         NOT AVBL
SUNLIGHT       MOSUNNY   72  52  49 CALM      30.60F
WILKERSON PASS PTSUNNY   72  30  21 SW5       30.63S
$$

COZ069>075-252100-
...SAN LUIS VALLEY/SANGRE DE CRISTO MOUNTAINS...

CITY           SKY/WX    TMP DP  RH WIND       PRES   REMARKS
ALAMOSA        MOSUNNY   85  43  22 NW8       30.30F
LA VETA PASS   MOSUNNY   75  43  31 SW8       30.53F
SAGUACHE       PTSUNNY   81  45  28 NW8G18    30.33F
$$

COZ035-036-038>040-252100-
...NORTHERN COLORADO FRONT RANGE...

CITY           SKY/WX    TMP DP  RH WIND       PRES   REMARKS
DENVER INTL AP PTSUNNY   91  42  18 S10       30.08F
DMNS CITY PARK   N/A     87  44  21 NW8       30.08S
AURORA         PTSUNNY   91  47  21 VRB5      30.10F
FRONT RANGE AP PTSUNNY   93  45  18 SE8       30.10
ERIE MUNI ARPT PTSUNNY   85  46  25 SW15      30.08R
BOULDER MUN AP PTSUNNY   82  46  28 S14G26    30.08R
CENTENNIAL     PTSUNNY   89  43  20 S10       30.12F
BROOMFIELD     TSTM      82  48  30 SW14      30.13R
FORT COLLINS   PTSUNNY   95  54  24 S7        30.01F
LONGMONT       PTSUNNY   90  50  25 S18G25    30.06S
$$

COZ041-046-047-076>085-087-088-252100-
...PIKES PEAK/PALMER DIVIDE AND SOUTHERN FOOTHILLS...

CITY           SKY/WX    TMP DP  RH WIND       PRES   REMARKS
COLO. SPRINGS  PTSUNNY   89  44  20 VRB6      30.17F
A. F. ACADEMY  MOSUNNY   85  46  25 E8        30.19F
ELLICOTT       MOSUNNY   90  42  18 E12       30.15F
FALCON         MOSUNNY   88  46  23 SE13      30.24S
FORT CARSON    MOSUNNY   91  47  22 E9        30.13F
LIMON          MOSUNNY   94  36  13 E14       30.09F
MONUMENT HILL  MOSUNNY   79  43  27 E6        30.25S
TRINIDAD       MOSUNNY   94  42  16 E5        30.10F
$$

COZ042>045-048>051-090-091-252100-
...NORTHEAST COLORADO...

CITY           SKY/WX    TMP DP  RH WIND       PRES   REMARKS
GREELEY ARPT   MOSUNNY   93  55  27 E13       30.02F
AKRON          MOSUNNY   92  47  21 VRB5      30.04F
BURLINGTON     MOSUNNY   92  55  28 NE12G18   30.01S
WRAY             N/A     91  55  28 NE9       29.98F
STERLING       MOSUNNY   90  61  37 E8        29.99F
HOLYOKE        MOSUNNY   95  57  28 NE7       29.98F
FORT MORGAN    MOSUNNY   92  57  31 SE10      30.04S
$$

COZ086-089-092>099-252100-
...SOUTHEAST COLORADO...

CITY           SKY/WX    TMP DP  RH WIND       PRES   REMARKS
PUEBLO         MOSUNNY   97  49  19 S9        30.01F
LA JUNTA       SUNNY     99  47  17 VRB5      29.97F
LAMAR          SUNNY    100  47  16 E5        29.91F
SPRINGFIELD      N/A     98  48  18 W5        29.97F
$$


USA.gov is the U.S. government's official web portal to all federal, state and local government web resources and services.